{"data":{"norad_id":45096,"intl_designator":"2020-006BE","name":"STARLINK-1152","alt_names":[],"object_type":"PAYLOAD","status":"ACTIVE","operator":null,"country":"US","launch_date":"2020-01-29","launch_site_code":"AFETR","launch_vehicle":null,"mission":null,"orbit_class":"UNKNOWN","rcs_meters":null,"size_class":null,"mass_kg":null,"dimensions":null,"purposes":["comms"],"wikipedia_slug":null,"has_3d_model":false,"image_url":null,"decayed_at":null,"tle_current":{"epoch":"2026-05-25T03:46:03.021024Z","epoch_age_seconds":72234,"freshness":"FRESH","line1":"1 45096U 20006BE  26145.15697941  .00049657  00000+0  96707-3 0  9994","line2":"2 45096  53.0344 203.2845 0004016  23.0474 337.0711 15.47081797349399","mean_motion":15.47081797,"eccentricity":0.0004016,"inclination_deg":53.0344,"raan_deg":203.2845,"arg_perigee_deg":23.0474,"mean_anomaly_deg":337.0711,"bstar":0.00096707,"rev_number":34939,"period_min":93.078465714764,"perigee_km":422.53573655259,"apogee_km":428.00023143574,"semimajor_km":6803.4049839942,"source":"CELESTRAK","updated_at":"2026-05-25T13:38:16.380521Z"}}}